| time (UTC) | temp C | wind direction | speed KPH | gust KPH | rain 1hr cm | rain 24hr cm | rain mn cm | humidity % | barometer mb |
| 20260507051553 | 11 | 189 | 0.0 | 3.2 | 0.00 | 0.00 | 0.00 | 84 | 1019.5 |
| 20260507051058 | 11 | 179 | 0.0 | 3.2 | 0.00 | 0.00 | 0.00 | 83 | 1019.4 |
| 20260507050512 | 11 | 284 | 0.0 | 8.0 | 0.00 | 0.00 | 0.00 | 84 | 1019.5 |
| 20260507050014 | 11 | 293 | 0.0 | 16.1 | 0.00 | 0.00 | 0.00 | 83 | 1019.4 |
| 20260507045521 | 11 | 254 | 3.2 | 16.1 | 0.00 | 0.00 | 0.00 | 83 | 1019.4 |
| 20260507045028 | 11 | 267 | 1.6 | 12.9 | 0.00 | 0.00 | 0.00 | 84 | 1019.4 |
| 20260507044616 | 11 | 250 | 3.2 | 14.5 | 0.00 | 0.00 | 0.00 | 84 | 1019.3 |
| 20260507044502 | 11 | 293 | 4.8 | 14.5 | 0.00 | 0.00 | 0.00 | 84 | 1019.3 |
| 20260507044014 | 11 | 288 | 3.2 | 14.5 | 0.00 | 0.00 | 0.00 | 84 | 1019.3 |
| 20260507043520 | 11 | 267 | 4.8 | 14.5 | 0.00 | 0.00 | 0.00 | 84 | 1019.3 |
| 20260507043023 | 11 | 241 | 6.4 | 14.5 | 0.00 | 0.00 | 0.00 | 84 | 1019.3 |
| 20260507042522 | 11 | 223 | 4.8 | 14.5 | 0.00 | 0.00 | 0.00 | 83 | 1019.2 |
| 20260507042030 | 11 | 256 | 1.6 | 14.5 | 0.00 | 0.00 | 0.00 | 83 | 1019.2 |
| 20260507041502 | 11 | 286 | 4.8 | 14.5 | 0.00 | 0.00 | 0.00 | 83 | 1019.2 |
| 20260507041009 | 11 | 302 | 1.6 | 12.9 | 0.00 | 0.00 | 0.00 | 83 | 1019.1 |
| 20260507040520 | 11 | 308 | 3.2 | 17.7 | 0.00 | 0.00 | 0.00 | 83 | 1019.1 |
| 20260507040052 | 11 | 286 | 3.2 | 17.7 | 0.00 | 0.00 | 0.00 | 83 | 1019.0 |
| 20260507035554 | 12 | 290 | 3.2 | 16.1 | 0.00 | 0.00 | 0.00 | 82 | 1019.0 |
| 20260507035008 | 12 | 309 | 4.8 | 16.1 | 0.00 | 0.00 | 0.00 | 82 | 1018.9 |
| 20260507034600 | 12 | 290 | 4.8 | 16.1 | 0.00 | 0.00 | 0.00 | 82 | 1018.9 |
| 20260507034502 | 12 | 355 | 6.4 | 16.1 | 0.00 | 0.00 | 0.00 | 82 | 1018.9 |
| 20260507034008 | 12 | 302 | 3.2 | 14.5 | 0.00 | 0.00 | 0.00 | 82 | 1018.9 |
| 20260507033520 | 12 | 314 | 4.8 | 17.7 | 0.00 | 0.00 | 0.00 | 82 | 1018.8 |
| 20260507033046 | 12 | 268 | 4.8 | 17.7 | 0.00 | 0.00 | 0.00 | 81 | 1018.7 |
| 20260507032559 | 12 | 304 | 6.4 | 16.1 | 0.00 | 0.00 | 0.00 | 81 | 1018.7 |
| 20260507032010 | 12 | 302 | 4.8 | 16.1 | 0.00 | 0.00 | 0.00 | 80 | 1018.7 |
| 20260507031545 | 12 | 275 | 4.8 | 14.5 | 0.00 | 0.00 | 0.00 | 80 | 1018.6 |
| 20260507031044 | 13 | 309 | 6.4 | 16.1 | 0.00 | 0.00 | 0.00 | 79 | 1018.5 |
| 20260507030555 | 13 | 290 | 1.6 | 16.1 | 0.00 | 0.00 | 0.00 | 79 | 1018.5 |
| 20260507030042 | 13 | 344 | 1.6 | 17.7 | 0.00 | 0.00 | 0.00 | 79 | 1018.5 |
| 20260507025550 | 13 | 256 | 4.8 | 14.5 | 0.00 | 0.00 | 0.00 | 78 | 1018.5 |
| 20260507025059 | 13 | 306 | 4.8 | 12.9 | 0.00 | 0.00 | 0.00 | 77 | 1018.5 |
| 20260507025002 | 13 | 313 | 4.8 | 12.9 | 0.00 | 0.00 | 0.00 | 77 | 1018.5 |
| 20260507024530 | 14 | 285 | 3.2 | 12.9 | 0.00 | 0.00 | 0.00 | 76 | 1018.5 |
| 20260507024043 | 14 | 28 | 1.6 | 6.4 | 0.00 | 0.00 | 0.00 | 75 | 1018.4 |
| 20260507023544 | 15 | 279 | 1.6 | 8.0 | 0.00 | 0.00 | 0.00 | 75 | 1018.4 |
| 20260507023020 | 15 | 272 | 0.0 | 12.9 | 0.00 | 0.00 | 0.00 | 74 | 1018.4 |
| 20260507022533 | 15 | 47 | 1.6 | 12.9 | 0.00 | 0.00 | 0.00 | 74 | 1018.4 |
| 20260507022041 | 15 | 290 | 1.6 | 12.9 | 0.00 | 0.00 | 0.00 | 74 | 1018.4 |
| 20260507021512 | 15 | 326 | 1.6 | 9.7 | 0.00 | 0.00 | 0.00 | 73 | 1018.4 |
| 20260507021022 | 15 | 321 | 1.6 | 9.7 | 0.00 | 0.00 | 0.00 | 73 | 1018.5 |
| 20260507020526 | 16 | 261 | 3.2 | 12.9 | 0.00 | 0.00 | 0.00 | 72 | 1018.4 |
| 20260507020042 | 16 | 315 | 3.2 | 16.1 | 0.00 | 0.00 | 0.00 | 72 | 1018.5 |
| 20260507015532 | 16 | 292 | 1.6 | 16.1 | 0.00 | 0.00 | 0.00 | 71 | 1018.5 |
| 20260507015040 | 16 | 295 | 3.2 | 16.1 | 0.00 | 0.00 | 0.00 | 70 | 1018.5 |
| 20260507014508 | 16 | 355 | 4.8 | 16.1 | 0.00 | 0.00 | 0.00 | 69 | 1018.5 |
| 20260507014014 | 17 | 360 | 1.6 | 12.9 | 0.00 | 0.00 | 0.00 | 69 | 1018.6 |
| 20260507013525 | 17 | 337 | 3.2 | 12.9 | 0.00 | 0.00 | 0.00 | 68 | 1018.5 |
| 20260507013057 | 17 | 300 | 3.2 | 11.3 | 0.00 | 0.00 | 0.00 | 68 | 1018.5 |
| 20260507012513 | 17 | 253 | 1.6 | 11.3 | 0.00 | 0.00 | 0.00 | 68 | 1018.4 |
| 20260507012020 | 17 | 297 | 3.2 | 11.3 | 0.00 | 0.00 | 0.00 | 68 | 1018.4 |
| 20260507011518 | 17 | 5 | 4.8 | 11.3 | 0.00 | 0.00 | 0.00 | 67 | 1018.5 |
| 20260507011022 | 17 | 350 | 3.2 | 12.9 | 0.00 | 0.00 | 0.00 | 67 | 1018.4 |
| 20260507010530 | 17 | 236 | 1.6 | 12.9 | 0.00 | 0.00 | 0.00 | 68 | 1018.5 |
| 20260507010027 | 17 | 284 | 1.6 | 19.3 | 0.00 | 0.00 | 0.00 | 68 | 1018.5 |
| 20260507005537 | 17 | 317 | 4.8 | 19.3 | 0.00 | 0.00 | 0.00 | 67 | 1018.4 |
| 20260507005041 | 17 | 305 | 6.4 | 16.1 | 0.00 | 0.00 | 0.00 | 67 | 1018.4 |
| 20260507004512 | 18 | 250 | 1.6 | 14.5 | 0.00 | 0.00 | 0.00 | 66 | 1018.4 |
| 20260507004016 | 18 | 304 | 4.8 | 14.5 | 0.00 | 0.00 | 0.00 | 66 | 1018.3 |
| 20260507003529 | 18 | 311 | 3.2 | 12.9 | 0.00 | 0.00 | 0.00 | 66 | 1018.4 |
| 20260507003115 | 18 | 254 | 1.6 | 12.9 | 0.00 | 0.00 | 0.00 | 66 | 1018.4 |
| 20260507002504 | 18 | 301 | 3.2 | 17.7 | 0.00 | 0.00 | 0.00 | 66 | 1018.3 |
| 20260507002014 | 18 | 284 | 1.6 | 16.1 | 0.00 | 0.00 | 0.00 | 66 | 1018.3 |
| 20260507001527 | 18 | 304 | 1.6 | 17.7 | 0.00 | 0.00 | 0.00 | 67 | 1018.3 |
| 20260507001017 | 18 | 331 | 6.4 | 17.7 | 0.00 | 0.00 | 0.00 | 67 | 1018.3 |
| 20260507000526 | 18 | 245 | 6.4 | 16.1 | 0.00 | 0.00 | 0.00 | 65 | 1018.3 |
| 20260507000100 | 18 | 337 | 4.8 | 16.1 | 0.00 | 0.00 | 0.00 | 65 | 1018.3 |
| 20260506235512 | 18 | 248 | 3.2 | 16.1 | 0.00 | 0.00 | 0.00 | 66 | 1018.3 |
| 20260506235017 | 18 | 309 | 3.2 | 16.1 | 0.00 | 0.00 | 0.00 | 66 | 1018.3 |
| 20260506234513 | 18 | 51 | 3.2 | 14.5 | 0.00 | 0.00 | 0.00 | 66 | 1018.3 |
| 20260506234020 | 18 | 342 | 6.4 | 22.5 | 0.00 | 0.00 | 0.00 | 65 | 1018.2 |
| 20260506233530 | 18 | 225 | 4.8 | 22.5 | 0.00 | 0.00 | 0.00 | 65 | 1018.3 |
| 20260506233003 | 19 | 291 | 3.2 | 12.9 | 0.00 | 0.00 | 0.00 | 62 | 1018.3 |
| 20260506232514 | 19 | 311 | 3.2 | 12.9 | 0.00 | 0.00 | 0.00 | 63 | 1018.3 |
| 20260506232020 | 19 | 28 | 4.8 | 16.1 | 0.00 | 0.00 | 0.00 | 63 | 1018.3 |
| 20260506231520 | 19 | 350 | 3.2 | 16.1 | 0.00 | 0.00 | 0.00 | 65 | 1018.3 |
| 20260506231026 | 19 | 22 | 6.4 | 16.1 | 0.00 | 0.00 | 0.00 | 63 | 1018.4 |
| 20260506230535 | 20 | 5 | 1.6 | 12.9 | 0.00 | 0.00 | 0.00 | 62 | 1018.4 |
| 20260506230010 | 19 | 32 | 3.2 | 19.3 | 0.00 | 0.00 | 0.00 | 65 | 1018.4 |
| 20260506225516 | 18 | 60 | 8.0 | 19.3 | 0.00 | 0.00 | 0.00 | 66 | 1018.5 |
| 20260506225024 | 19 | 58 | 4.8 | 16.1 | 0.00 | 0.00 | 0.00 | 64 | 1018.5 |
| 20260506224559 | 19 | 67 | 6.4 | 17.7 | 0.00 | 0.00 | 0.00 | 65 | 1018.5 |
| 20260506224005 | 19 | 18 | 8.0 | 16.1 | 0.00 | 0.00 | 0.00 | 65 | 1018.5 |
| 20260506223514 | 19 | 77 | 6.4 | 12.9 | 0.00 | 0.00 | 0.00 | 64 | 1018.5 |
| 20260506223040 | 20 | 59 | 4.8 | 14.5 | 0.00 | 0.00 | 0.00 | 63 | 1018.6 |
| 20260506222548 | 20 | 355 | 3.2 | 14.5 | 0.00 | 0.00 | 0.00 | 64 | 1018.6 |
| 20260506222057 | 20 | 20 | 4.8 | 14.5 | 0.00 | 0.00 | 0.00 | 64 | 1018.7 |
| 20260506222003 | 20 | 15 | 4.8 | 14.5 | 0.00 | 0.00 | 0.00 | 65 | 1018.7 |
| 20260506221532 | 20 | 33 | 3.2 | 9.7 | 0.00 | 0.00 | 0.00 | 64 | 1018.7 |
| 20260506221032 | 19 | 71 | 3.2 | 12.9 | 0.00 | 0.00 | 0.00 | 64 | 1018.7 |
| 20260506220544 | 19 | 20 | 4.8 | 12.9 | 0.00 | 0.00 | 0.00 | 65 | 1018.7 |
| 20260506220019 | 19 | 269 | 1.6 | 8.0 | 0.00 | 0.00 | 0.00 | 65 | 1018.7 |
| 20260506215526 | 18 | 344 | 1.6 | 12.9 | 0.00 | 0.00 | 0.00 | 67 | 1018.8 |
| 20260506215036 | 18 | 98 | 6.4 | 17.7 | 0.00 | 0.00 | 0.00 | 65 | 1018.8 |
| 20260506214511 | 18 | 281 | 6.4 | 17.7 | 0.00 | 0.00 | 0.00 | 67 | 1018.8 |
| 20260506214016 | 18 | 348 | 4.8 | 17.7 | 0.00 | 0.00 | 0.00 | 66 | 1018.7 |
| 20260506213524 | 18 | 12 | 6.4 | 17.7 | 0.00 | 0.00 | 0.00 | 66 | 1018.8 |
| 20260506213048 | 18 | 5 | 6.4 | 16.1 | 0.00 | 0.00 | 0.00 | 67 | 1018.8 |
| 20260506212602 | 19 | 234 | 6.4 | 16.1 | 0.00 | 0.00 | 0.00 | 66 | 1018.9 |
| 20260506212502 | 18 | 346 | 6.4 | 16.1 | 0.00 | 0.00 | 0.00 | 66 | 1018.8 |
| 20260506212007 | 18 | 349 | 3.2 | 11.3 | 0.00 | 0.00 | 0.00 | 67 | 1018.8 |
| 20260506211536 | 18 | 24 | 4.8 | 11.3 | 0.00 | 0.00 | 0.00 | 67 | 1018.8 |
| 20260506211048 | 19 | 204 | 3.2 | 12.9 | 0.00 | 0.00 | 0.00 | 65 | 1018.8 |
| 20260506210553 | 18 | 11 | 3.2 | 12.9 | 0.00 | 0.00 | 0.00 | 69 | 1018.8 |
| 20260506205603 | 20 | 5 | 1.6 | 8.0 | 0.00 | 0.00 | 0.00 | 64 | 1018.9 |
| 20260506205006 | 18 | 182 | 1.6 | 4.8 | 0.00 | 0.00 | 0.00 | 67 | 1018.9 |
| 20260506204601 | 18 | 57 | 1.6 | 4.8 | 0.00 | 0.00 | 0.00 | 68 | 1018.9 |
| 20260506204007 | 18 | 236 | 1.6 | 4.8 | 0.00 | 0.00 | 0.00 | 69 | 1019.0 |
| 20260506203514 | 18 | 117 | 1.6 | 9.7 | 0.00 | 0.00 | 0.00 | 70 | 1019.0 |
| 20260506203012 | 17 | 76 | 3.2 | 9.7 | 0.00 | 0.00 | 0.00 | 70 | 1019.1 |
| 20260506202525 | 17 | 117 | 4.8 | 11.3 | 0.00 | 0.00 | 0.00 | 69 | 1019.0 |
| 20260506202029 | 17 | 90 | 4.8 | 11.3 | 0.00 | 0.00 | 0.00 | 69 | 1019.1 |
| 20260506201537 | 17 | 348 | 1.6 | 12.9 | 0.00 | 0.00 | 0.00 | 70 | 1019.1 |
| 20260506201047 | 17 | 38 | 4.8 | 14.5 | 0.00 | 0.00 | 0.00 | 69 | 1019.2 |
| 20260506200601 | 17 | 9 | 6.4 | 16.1 | 0.00 | 0.00 | 0.00 | 72 | 1019.2 |
| 20260506200026 | 17 | 49 | 6.4 | 12.9 | 0.00 | 0.00 | 0.00 | 71 | 1019.2 |
| 20260506195535 | 17 | 30 | 3.2 | 12.9 | 0.00 | 0.00 | 0.00 | 74 | 1019.2 |
| 20260506195040 | 17 | 13 | 4.8 | 12.9 | 0.00 | 0.00 | 0.00 | 74 | 1019.2 |
| 20260506194516 | 17 | 15 | 1.6 | 8.0 | 0.00 | 0.00 | 0.00 | 73 | 1019.2 |
| 20260506194021 | 17 | 161 | 1.6 | 8.0 | 0.00 | 0.00 | 0.00 | 72 | 1019.2 |
| 20260506193529 | 17 | 249 | 3.2 | 6.4 | 0.00 | 0.00 | 0.00 | 71 | 1019.2 |
| 20260506193103 | 17 | 150 | 0.0 | 6.4 | 0.00 | 0.00 | 0.00 | 71 | 1019.1 |
| 20260506192502 | 17 | 171 | 0.0 | 4.8 | 0.00 | 0.00 | 0.00 | 71 | 1019.1 |
| 20260506192006 | 17 | 58 | 1.6 | 4.8 | 0.00 | 0.00 | 0.00 | 71 | 1019.1 |
| 20260506191538 | 17 | 38 | 0.0 | 8.0 | 0.00 | 0.00 | 0.00 | 72 | 1019.2 |
| 20260506191049 | 17 | 26 | 3.2 | 14.5 | 0.00 | 0.00 | 0.00 | 72 | 1019.2 |
| 20260506190556 | 17 | 47 | 3.2 | 14.5 | 0.00 | 0.00 | 0.00 | 73 | 1019.1 |
| 20260506190031 | 17 | 46 | 1.6 | 6.4 | 0.00 | 0.00 | 0.00 | 73 | 1019.1 |
| 20260506185532 | 17 | 80 | 1.6 | 11.3 | 0.00 | 0.00 | 0.00 | 71 | 1019.2 |
| 20260506185044 | 16 | 61 | 3.2 | 8.0 | 0.00 | 0.00 | 0.00 | 75 | 1019.1 |
| 20260506184521 | 16 | 119 | 3.2 | 8.0 | 0.00 | 0.00 | 0.00 | 76 | 1019.2 |
| 20260506184028 | 17 | 355 | 3.2 | 6.4 | 0.00 | 0.00 | 0.00 | 74 | 1019.1 |
| 20260506183535 | 16 | 214 | 0.0 | 4.8 | 0.00 | 0.00 | 0.00 | 74 | 1019.1 |
| 20260506183008 | 17 | 196 | 1.6 | 8.0 | 0.00 | 0.00 | 0.00 | 73 | 1019.2 |
| 20260506182516 | 18 | 128 | 1.6 | 8.0 | 0.00 | 0.00 | 0.00 | 70 | 1019.2 |
| 20260506182022 | 17 | 171 | 1.6 | 6.4 | 0.00 | 0.00 | 0.00 | 71 | 1019.2 |
| 20260506181553 | 17 | 275 | 1.6 | 4.8 | 0.00 | 0.00 | 0.00 | 72 | 1019.3 |
| 20260506181054 | 17 | 170 | 0.0 | 4.8 | 0.00 | 0.00 | 0.00 | 72 | 1019.3 |
| 20260506180555 | 17 | 236 | 0.0 | 4.8 | 0.00 | 0.00 | 0.00 | 73 | 1019.3 |
| 20260506180504 | 17 | 257 | 0.0 | 4.8 | 0.00 | 0.00 | 0.00 | 74 | 1019.3 |
| 20260506180029 | 17 | 98 | 1.6 | 6.4 | 0.00 | 0.00 | 0.00 | 75 | 1019.2 |
| 20260506175538 | 16 | 90 | 1.6 | 6.4 | 0.00 | 0.00 | 0.00 | 75 | 1019.3 |
| 20260506175036 | 16 | 321 | 1.6 | 6.4 | 0.00 | 0.00 | 0.00 | 77 | 1019.2 |
| 20260506174504 | 15 | 288 | 1.6 | 6.4 | 0.00 | 0.00 | 0.00 | 77 | 1019.1 |
| 20260506174011 | 15 | 154 | 0.0 | 6.4 | 0.00 | 0.00 | 0.00 | 78 | 1019.0 |
| 20260506173517 | 15 | 49 | 0.0 | 9.7 | 0.00 | 0.00 | 0.00 | 79 | 1019.0 |
| 20260506173046 | 15 | 119 | 1.6 | 9.7 | 0.00 | 0.00 | 0.00 | 79 | 1018.9 |
| 20260506172550 | 15 | 72 | 3.2 | 4.8 | 0.00 | 0.00 | 0.00 | 79 | 1019.0 |
| 20260506172058 | 14 | 79 | 3.2 | 4.8 | 0.00 | 0.00 | 0.00 | 80 | 1019.0 |
| 20260506172006 | 14 | 53 | 3.2 | 4.8 | 0.00 | 0.00 | 0.00 | 79 | 1019.1 |
| 20260506171535 | 15 | 20 | 1.6 | 6.4 | 0.00 | 0.00 | 0.00 | 79 | 1019.3 |
| 20260506171043 | 15 | 305 | 1.6 | 6.4 | 0.00 | 0.00 | 0.00 | 80 | 1019.4 |
| 20260506170545 | 15 | 355 | 0.0 | 4.8 | 0.00 | 0.00 | 0.00 | 81 | 1019.4 |
| 20260506170015 | 14 | 209 | 0.0 | 4.8 | 0.00 | 0.00 | 0.00 | 80 | 1019.2 |
| 20260506165517 | 14 | 328 | 1.6 | 8.0 | 0.00 | 0.00 | 0.00 | 81 | 1019.2 |
| 20260506165023 | 14 | 264 | 1.6 | 8.0 | 0.00 | 0.00 | 0.00 | 83 | 1019.1 |
| 20260506164605 | 13 | 54 | 0.0 | 6.4 | 0.00 | 0.00 | 0.00 | 87 | 1019.0 |
| 20260506164053 | 13 | 38 | 0.0 | 4.8 | 0.00 | 0.00 | 0.00 | 88 | 1019.3 |
| 20260506163504 | 12 | 335 | 1.6 | 4.8 | 0.00 | 0.00 | 0.00 | 92 | 1019.5 |
| 20260506163109 | 12 | 39 | 1.6 | 4.8 | 0.00 | 0.00 | 0.00 | 94 | 1019.4 |
| 20260506163004 | 12 | 38 | 0.0 | 1.6 | 0.00 | 0.00 | 0.00 | 95 | 1019.5 |
| 20260506162510 | 12 | 9 | 0.0 | 3.2 | 0.00 | 0.00 | 0.00 | 95 | 1019.5 |
| 20260506162017 | 11 | 344 | 0.0 | 3.2 | 0.00 | 0.00 | 0.00 | 96 | 1019.3 |
| 20260506161547 | 11 | 33 | 0.0 | 1.6 | 0.00 | 0.00 | 0.00 | 96 | 1019.4 |
| 20260506161053 | 11 | 29 | 0.0 | 3.2 | 0.00 | 0.00 | 0.00 | 96 | 1019.3 |
| 20260506160503 | 11 | 14 | 0.0 | 3.2 | 0.00 | 0.00 | 0.00 | 96 | 1019.2 |
| 20260506160118 | 11 | 88 | 0.0 | 4.8 | 0.00 | 0.00 | 0.00 | 96 | 1019.1 |
| 20260506155506 | 11 | 75 | 0.0 | 4.8 | 0.00 | 0.00 | 0.00 | 96 | 1019.1 |
| 20260506155016 | 11 | 113 | 0.0 | 4.8 | 0.00 | 0.00 | 0.00 | 96 | 1019.0 |
| 20260506154547 | 11 | 88 | 0.0 | 4.8 | 0.00 | 0.00 | 0.00 | 96 | 1018.9 |
| 20260506154051 | 11 | 147 | 0.0 | 4.8 | 0.00 | 0.00 | 0.00 | 96 | 1018.7 |
| 20260506153505 | 11 | 155 | 0.0 | 4.8 | 0.00 | 0.00 | 0.00 | 96 | 1018.9 |
| 20260506153055 | 11 | 115 | 0.0 | 4.8 | 0.00 | 0.00 | 0.00 | 96 | 1019.1 |
| 20260506152500 | 11 | 68 | 1.6 | 4.8 | 0.00 | 0.00 | 0.00 | 95 | 1019.2 |
| 20260506152011 | 11 | 94 | 0.0 | 3.2 | 0.00 | 0.00 | 0.00 | 95 | 1019.2 |
| 20260506151541 | 11 | 77 | 0.0 | 3.2 | 0.00 | 0.00 | 0.00 | 95 | 1019.4 |
| 20260506151053 | 11 | 27 | 0.0 | 1.6 | 0.00 | 0.00 | 0.00 | 95 | 1019.3 |
| 20260506150556 | 11 | 42 | 0.0 | 4.8 | 0.00 | 0.00 | 0.00 | 95 | 1019.4 |
| 20260506150503 | 11 | 52 | 0.0 | 4.8 | 0.00 | 0.00 | 0.00 | 95 | 1019.3 |
| 20260506150033 | 11 | 62 | 1.6 | 4.8 | 0.00 | 0.00 | 0.00 | 95 | 1019.3 |
| 20260506145543 | 11 | 34 | 0.0 | 3.2 | 0.00 | 0.00 | 0.00 | 95 | 1019.3 |
| 20260506145046 | 11 | 349 | 0.0 | 3.2 | 0.00 | 0.00 | 0.00 | 95 | 1019.4 |
| 20260506144525 | 11 | 328 | 0.0 | 1.6 | 0.00 | 0.00 | 0.00 | 95 | 1019.4 |
| 20260506144032 | 11 | 265 | 0.0 | 1.6 | 0.00 | 0.00 | 0.00 | 95 | 1019.4 |
| 20260506143533 | 11 | 228 | 0.0 | 0.0 | 0.00 | 0.00 | 0.00 | 95 | 1019.3 |
| 20260506143006 | 11 | 228 | 0.0 | 3.2 | 0.00 | 0.00 | 0.00 | 95 | 1019.2 |
| 20260506142515 | 11 | 227 | 0.0 | 3.2 | 0.00 | 0.00 | 0.00 | 95 | 1018.9 |
| 20260506142018 | 11 | 146 | 0.0 | 0.0 | 0.00 | 0.00 | 0.00 | 95 | 1018.8 |
| 20260506141524 | 11 | 146 | 0.0 | 0.0 | 0.00 | 0.00 | 0.00 | 95 | 1018.7 |
| 20260506141028 | 11 | 146 | 0.0 | 1.6 | 0.00 | 0.00 | 0.00 | 95 | 1018.7 |
| 20260506140532 | 11 | 146 | 0.0 | 3.2 | 0.00 | 0.00 | 0.00 | 94 | 1018.4 |
| 20260506140101 | 11 | 146 | 0.0 | 3.2 | 0.00 | 0.00 | 0.00 | 95 | 1018.3 |
| 20260506135506 | 11 | 186 | 0.0 | 0.0 | 0.00 | 0.00 | 0.00 | 95 | 1018.4 |
| 20260506135018 | 11 | 186 | 0.0 | 0.0 | 0.00 | 0.00 | 0.00 | 95 | 1018.3 |
| 20260506134553 | 11 | 186 | 0.0 | 0.0 | 0.00 | 0.00 | 0.00 | 94 | 1018.3 |
| 20260506134101 | 11 | 186 | 0.0 | 0.0 | 0.00 | 0.00 | 0.00 | 95 | 1018.2 |
| 20260506133511 | 11 | 186 | 0.0 | 0.0 | 0.00 | 0.00 | 0.00 | 95 | 1018.3 |
| 20260506133056 | 11 | 186 | 0.0 | 0.0 | 0.00 | 0.00 | 0.00 | 95 | 1018.2 |
| 20260506132546 | 11 | 186 | 0.0 | 0.0 | 0.00 | 0.00 | 0.00 | 94 | 1018.3 |
| 20260506132100 | 11 | 186 | 0.0 | 0.0 | 0.00 | 0.00 | 0.00 | 94 | 1018.3 |
| 20260506131553 | 11 | 186 | 0.0 | 1.6 | 0.00 | 0.00 | 0.00 | 94 | 1018.3 |
| 20260506131055 | 11 | 186 | 0.0 | 3.2 | 0.00 | 0.00 | 0.00 | 94 | 1018.3 |
| 20260506130555 | 11 | 246 | 0.0 | 3.2 | 0.00 | 0.00 | 0.00 | 94 | 1018.2 |
| 20260506130508 | 11 | 243 | 0.0 | 3.2 | 0.00 | 0.00 | 0.00 | 94 | 1018.1 |
| 20260506130027 | 11 | 214 | 0.0 | 0.0 | 0.00 | 0.00 | 0.00 | 94 | 1018.1 |
| 20260506125537 | 11 | 214 | 0.0 | 0.0 | 0.00 | 0.00 | 0.00 | 94 | 1018.0 |
| 20260506125042 | 11 | 214 | 0.0 | 0.0 | 0.00 | 0.00 | 0.00 | 94 | 1017.9 |
| 20260506124514 | 11 | 214 | 0.0 | 0.0 | 0.00 | 0.00 | 0.00 | 94 | 1017.9 |
| 20260506124030 | 11 | 214 | 0.0 | 0.0 | 0.00 | 0.00 | 0.00 | 94 | 1017.9 |
| 20260506123537 | 11 | 214 | 0.0 | 0.0 | 0.00 | 0.00 | 0.00 | 94 | 1017.9 |
| 20260506123013 | 11 | 227 | 0.0 | 0.0 | 0.00 | 0.00 | 0.00 | 94 | 1017.9 |
| 20260506122518 | 11 | 227 | 0.0 | 0.0 | 0.00 | 0.00 | 0.00 | 94 | 1018.0 |
| 20260506122028 | 11 | 227 | 0.0 | 0.0 | 0.00 | 0.00 | 0.00 | 94 | 1018.1 |
| 20260506121557 | 11 | 227 | 0.0 | 0.0 | 0.00 | 0.00 | 0.00 | 94 | 1018.1 |
| 20260506121008 | 11 | 227 | 0.0 | 0.0 | 0.00 | 0.00 | 0.00 | 94 | 1018.1 |
| 20260506120517 | 11 | 227 | 0.0 | 0.0 | 0.00 | 0.00 | 0.00 | 94 | 1017.9 |
| 20260506120056 | 11 | 227 | 0.0 | 0.0 | 0.00 | 0.00 | 0.00 | 94 | 1017.9 |
| 20260506115553 | 11 | 227 | 0.0 | 0.0 | 0.00 | 0.00 | 0.00 | 94 | 1017.8 |
| 20260506115001 | 11 | 320 | 0.0 | 0.0 | 0.00 | 0.00 | 0.00 | 94 | 1017.8 |
| 20260506114533 | 11 | 320 | 0.0 | 0.0 | 0.00 | 0.00 | 0.00 | 94 | 1017.8 |
| 20260506114046 | 11 | 320 | 0.0 | 0.0 | 0.00 | 0.00 | 0.00 | 94 | 1017.7 |
| 20260506113551 | 11 | 320 | 0.0 | 0.0 | 0.00 | 0.00 | 0.00 | 94 | 1017.7 |
| 20260506113023 | 11 | 320 | 0.0 | 0.0 | 0.00 | 0.00 | 0.00 | 94 | 1017.6 |
| 20260506112530 | 11 | 320 | 0.0 | 0.0 | 0.00 | 0.00 | 0.00 | 94 | 1017.5 |
| 20260506112037 | 11 | 320 | 0.0 | 0.0 | 0.00 | 0.00 | 0.00 | 94 | 1017.4 |
| 20260506111511 | 11 | 320 | 0.0 | 0.0 | 0.00 | 0.00 | 0.00 | 94 | 1017.3 |
| 20260506111016 | 11 | 320 | 0.0 | 0.0 | 0.00 | 0.00 | 0.00 | 94 | 1017.4 |
| 20260506110523 | 11 | 320 | 0.0 | 0.0 | 0.00 | 0.00 | 0.00 | 94 | 1017.4 |
| 20260506110101 | 11 | 320 | 0.0 | 0.0 | 0.00 | 0.00 | 0.00 | 94 | 1017.3 |
| 20260506105553 | 11 | 319 | 0.0 | 0.0 | 0.00 | 0.00 | 0.00 | 94 | 1017.1 |
| 20260506105002 | 11 | 348 | 0.0 | 0.0 | 0.00 | 0.00 | 0.00 | 94 | 1017.1 |
| 20260506104614 | 11 | 22 | 0.0 | 0.0 | 0.00 | 0.00 | 0.00 | 94 | 1017.0 |
| 20260506104004 | 10 | 28 | 0.0 | 0.0 | 0.00 | 0.00 | 0.00 | 94 | 1016.9 |
| 20260506103509 | 10 | 28 | 0.0 | 0.0 | 0.00 | 0.00 | 0.00 | 94 | 1016.9 |
| 20260506103043 | 10 | 28 | 0.0 | 0.0 | 0.00 | 0.00 | 0.00 | 94 | 1016.8 |
| 20260506102549 | 10 | 28 | 0.0 | 0.0 | 0.00 | 0.00 | 0.00 | 94 | 1016.8 |
| 20260506102047 | 10 | 28 | 0.0 | 0.0 | 0.00 | 0.00 | 0.00 | 94 | 1016.7 |
| 20260506101519 | 10 | 28 | 0.0 | 0.0 | 0.00 | 0.00 | 0.00 | 94 | 1016.7 |
| 20260506101027 | 10 | 28 | 0.0 | 0.0 | 0.00 | 0.00 | 0.00 | 93 | 1016.6 |
| 20260506100530 | 10 | 28 | 0.0 | 0.0 | 0.00 | 0.00 | 0.00 | 93 | 1016.6 |
| 20260506100022 | 10 | 28 | 0.0 | 0.0 | 0.00 | 0.00 | 0.00 | 93 | 1016.6 |
| 20260506095531 | 10 | 28 | 0.0 | 0.0 | 0.00 | 0.00 | 0.00 | 93 | 1016.6 |
| 20260506095034 | 10 | 28 | 0.0 | 0.0 | 0.00 | 0.00 | 0.00 | 93 | 1016.5 |
| 20260506094603 | 10 | 28 | 0.0 | 0.0 | 0.00 | 0.00 | 0.00 | 93 | 1016.4 |
| 20260506094004 | 10 | 28 | 0.0 | 0.0 | 0.00 | 0.00 | 0.00 | 93 | 1016.4 |
| 20260506093513 | 10 | 28 | 0.0 | 0.0 | 0.00 | 0.00 | 0.00 | 93 | 1016.4 |
| 20260506093036 | 10 | 28 | 0.0 | 0.0 | 0.00 | 0.00 | 0.00 | 93 | 1016.3 |
| 20260506092543 | 11 | 28 | 0.0 | 0.0 | 0.00 | 0.00 | 0.00 | 93 | 1016.2 |
| 20260506092045 | 11 | 28 | 0.0 | 0.0 | 0.00 | 0.00 | 0.00 | 93 | 1016.2 |
| 20260506091518 | 11 | 28 | 0.0 | 0.0 | 0.00 | 0.00 | 0.00 | 93 | 1016.2 |
| 20260506091031 | 11 | 28 | 0.0 | 0.0 | 0.00 | 0.00 | 0.00 | 93 | 1016.2 |
| 20260506090531 | 11 | 28 | 0.0 | 0.0 | 0.00 | 0.00 | 0.00 | 93 | 1016.2 |
| 20260506090006 | 11 | 28 | 0.0 | 0.0 | 0.00 | 0.00 | 0.00 | 93 | 1016.2 |
| 20260506085512 | 11 | 28 | 0.0 | 0.0 | 0.00 | 0.00 | 0.00 | 93 | 1016.3 |
| 20260506085021 | 11 | 61 | 0.0 | 0.0 | 0.00 | 0.00 | 0.00 | 92 | 1016.2 |
| 20260506084629 | 11 | 67 | 0.0 | 0.0 | 0.00 | 0.00 | 0.00 | 92 | 1016.1 |
| 20260506084003 | 11 | 82 | 0.0 | 0.0 | 0.00 | 0.00 | 0.00 | 92 | 1016.1 |
| 20260506083513 | 11 | 102 | 0.0 | 0.0 | 0.00 | 0.00 | 0.00 | 92 | 1016.1 |
| 20260506083040 | 11 | 102 | 0.0 | 0.0 | 0.00 | 0.00 | 0.00 | 91 | 1016.1 |
| 20260506082544 | 11 | 102 | 0.0 | 0.0 | 0.00 | 0.00 | 0.00 | 91 | 1016.1 |
| 20260506082046 | 11 | 102 | 0.0 | 0.0 | 0.00 | 0.00 | 0.00 | 91 | 1016.0 |
| 20260506081518 | 11 | 101 | 0.0 | 0.0 | 0.00 | 0.00 | 0.00 | 91 | 1016.0 |
| 20260506081027 | 11 | 102 | 0.0 | 0.0 | 0.00 | 0.00 | 0.00 | 91 | 1016.0 |
| 20260506080533 | 11 | 102 | 0.0 | 0.0 | 0.00 | 0.00 | 0.00 | 90 | 1016.1 |
| 20260506073027 | 12 | 102 | 0.0 | 0.0 | 0.00 | 0.00 | 0.00 | 88 | 1016.0 |
| 20260506072530 | 12 | 102 | 0.0 | 0.0 | 0.00 | 0.00 | 0.00 | 88 | 1016.0 |
| 20260506072042 | 12 | 101 | 0.0 | 0.0 | 0.00 | 0.00 | 0.00 | 88 | 1015.9 |
| 20260506071511 | 12 | 102 | 0.0 | 0.0 | 0.00 | 0.00 | 0.00 | 88 | 1015.9 |
| 20260506071012 | 12 | 81 | 0.0 | 0.0 | 0.00 | 0.00 | 0.00 | 87 | 1015.8 |
| 20260506070520 | 12 | 81 | 0.0 | 0.0 | 0.00 | 0.00 | 0.00 | 87 | 1015.8 |
| 20260506062045 | 13 | 63 | 0.0 | 0.0 | 0.00 | 0.00 | 0.00 | 84 | 1015.6 |
| 20260506061513 | 13 | 63 | 0.0 | 3.2 | 0.00 | 0.00 | 0.00 | 83 | 1015.5 |
| 20260506061025 | 13 | 63 | 0.0 | 3.2 | 0.00 | 0.00 | 0.00 | 83 | 1015.5 |
| 20260506060531 | 13 | 60 | 0.0 | 0.0 | 0.00 | 0.00 | 0.00 | 83 | 1015.5 |